{"data":{"norad_id":66801,"intl_designator":"2025-278L","name":"STARLINK-36080","alt_names":[],"object_type":"PAYLOAD","status":"ACTIVE","operator":null,"country":"US","launch_date":"2025-12-01","launch_site_code":"AFETR","launch_vehicle":null,"mission":null,"orbit_class":"UNKNOWN","rcs_meters":null,"size_class":null,"mass_kg":null,"dimensions":null,"purposes":["comms"],"wikipedia_slug":null,"has_3d_model":false,"image_url":null,"decayed_at":null,"tle_current":{"epoch":"2026-05-25T02:53:41.090208Z","epoch_age_seconds":61294,"freshness":"FRESH","line1":"1 66801U 25278L   26145.12061447  .00023529  00000+0  86115-3 0  9992","line2":"2 66801  43.0016  43.1215 0001343 258.6713 101.3988 15.27606174 26890","mean_motion":15.27606174,"eccentricity":0.0001343,"inclination_deg":43.0016,"raan_deg":43.1215,"arg_perigee_deg":258.6713,"mean_anomaly_deg":101.3988,"bstar":0.00086115,"rev_number":2689,"period_min":94.265133547437,"perigee_km":482.04927601949,"apogee_km":483.89216955383,"semimajor_km":6861.1077227867,"source":"CELESTRAK","updated_at":"2026-05-25T13:38:21.328622Z"}}}